Time,TemperatureF,DewpointF,PressureIn,WindDirection,WindDirectionDegrees,WindSpeedMPH,WindSpeedGustMPH,Humidity,HourlyPrecipIn,Conditions,Clouds,dailyrainin,SoftwareType,DateUTC
2013-07-11 00:01:00,73.4,69.0,29.84,WNW,288,0.0,0.0,86,0.00,,---,0.09,VWS V14.01,2013-07-11 04:01:00,
2013-07-11 00:02:00,73.5,69.1,29.84,WNW,302,0.0,3.0,86,0.00,,---,0.00,VWS V14.01,2013-07-11 04:02:00,
2013-07-11 00:07:00,73.7,69.3,29.84,WNW,285,0.0,2.0,86,0.00,,---,0.00,VWS V14.01,2013-07-11 04:07:00,
2013-07-11 00:12:00,73.8,69.0,29.83,West,267,0.0,2.0,85,0.00,,---,0.00,VWS V14.01,2013-07-11 04:12:00,
2013-07-11 00:18:00,73.7,69.3,29.83,West,280,1.0,1.0,86,0.00,,---,0.00,VWS V14.01,2013-07-11 04:18:00,
2013-07-11 00:23:00,73.6,69.2,29.83,WNW,282,1.0,1.0,86,0.00,,---,0.00,VWS V14.01,2013-07-11 04:23:00,
2013-07-11 00:28:00,73.6,69.2,29.83,WNW,283,0.0,0.0,86,0.00,,---,0.00,VWS V14.01,2013-07-11 04:28:00,
2013-07-11 00:33:00,73.6,69.2,29.83,West,274,0.0,0.0,86,0.00,,---,0.00,VWS V14.01,2013-07-11 04:33:00,
2013-07-11 00:38:00,73.5,69.1,29.83,West,271,0.0,1.0,86,0.00,,---,0.00,VWS V14.01,2013-07-11 04:38:00,
2013-07-11 00:43:00,73.4,69.0,29.83,NW,311,0.0,1.0,86,0.00,,---,0.00,VWS V14.01,2013-07-11 04:43:00,
2013-07-11 00:48:00,73.4,69.0,29.83,NNW,327,0.0,0.0,86,0.00,,---,0.00,VWS V14.01,2013-07-11 04:48:00,
2013-07-11 00:53:00,73.3,69.2,29.83,NNW,328,0.0,0.0,87,0.00,,---,0.00,VWS V14.01,2013-07-11 04:53:00,
2013-07-11 00:58:00,73.0,69.2,29.83,NNW,340,0.0,0.0,88,0.00,,---,0.00,VWS V14.01,2013-07-11 04:58:00,
2013-07-11 01:03:00,72.7,69.3,29.83,NNE,32,0.0,0.0,89,0.00,,---,0.00,VWS V14.01,2013-07-11 05:03:00,
2013-07-11 01:08:00,72.6,68.8,29.83,West,278,0.0,1.0,88,0.00,,---,0.00,VWS V14.01,2013-07-11 05:08:00,
2013-07-11 01:13:00,72.7,69.3,29.83,NNW,345,0.0,0.0,89,0.00,,---,0.00,VWS V14.01,2013-07-11 05:13:00,
2013-07-11 01:18:00,72.5,69.4,29.83,East,89,0.0,0.0,90,0.00,,---,0.00,VWS V14.01,2013-07-11 05:18:00,
2013-07-11 01:24:00,72.4,69.0,29.83,WNW,289,0.0,0.0,89,0.00,,---,0.00,VWS V14.01,2013-07-11 05:24:00,
2013-07-11 01:29:00,72.3,68.9,29.83,NW,304,0.0,0.0,89,0.00,,---,0.00,VWS V14.01,2013-07-11 05:29:00,
2013-07-11 01:34:00,72.6,69.2,29.83,NW,308,0.0,0.0,89,0.00,,---,0.00,VWS V14.01,2013-07-11 05:34:00,
2013-07-11 01:39:00,72.7,69.3,29.84,NW,321,0.0,0.0,89,0.00,,---,0.00,VWS V14.01,2013-07-11 05:39:00,
2013-07-11 01:44:00,72.6,69.5,29.84,North,1,0.0,0.0,90,0.00,,---,0.00,VWS V14.01,2013-07-11 05:44:00,
2013-07-11 01:49:00,72.3,69.5,29.84,North,1,0.0,0.0,91,0.00,,---,0.00,VWS V14.01,2013-07-11 05:49:00,
2013-07-11 01:54:00,72.1,69.0,29.85,NW,311,0.0,1.0,90,0.00,,---,0.00,VWS V14.01,2013-07-11 05:54:00,
2013-07-11 01:59:00,72.1,69.0,29.85,North,3,0.0,1.0,90,0.00,,---,0.00,VWS V14.01,2013-07-11 05:59:00,
2013-07-11 02:04:00,72.0,68.9,29.85,NW,313,0.0,0.0,90,0.00,,---,0.00,VWS V14.01,2013-07-11 06:04:00,
2013-07-11 02:09:00,72.0,69.2,29.85,NW,322,0.0,0.0,91,0.00,,---,0.00,VWS V14.01,2013-07-11 06:09:00,
2013-07-11 02:14:00,71.7,68.9,29.85,NW,321,0.0,0.0,91,0.00,,---,0.00,VWS V14.01,2013-07-11 06:14:00,
2013-07-11 02:20:00,71.5,69.1,29.85,NW,321,0.0,0.0,92,0.00,,---,0.00,VWS V14.01,2013-07-11 06:20:00,
2013-07-11 02:25:00,71.2,68.8,29.85,NW,321,0.0,0.0,92,0.00,,---,0.00,VWS V14.01,2013-07-11 06:25:00,
2013-07-11 02:30:00,71.0,68.9,29.85,NW,321,0.0,0.0,93,0.00,,---,0.00,VWS V14.01,2013-07-11 06:30:00,
2013-07-11 02:35:00,70.8,68.4,29.85,NW,321,0.0,0.0,92,0.00,,---,0.00,VWS V14.01,2013-07-11 06:35:00,
2013-07-11 02:40:00,70.7,68.3,29.85,NW,322,0.0,0.0,92,0.00,,---,0.00,VWS V14.01,2013-07-11 06:40:00,
2013-07-11 02:45:00,70.7,68.6,29.85,NW,321,0.0,0.0,93,0.00,,---,0.00,VWS V14.01,2013-07-11 06:45:00,
2013-07-11 02:50:00,70.6,68.2,29.85,NW,321,0.0,0.0,92,0.00,,---,0.00,VWS V14.01,2013-07-11 06:50:00,
2013-07-11 02:55:00,70.6,68.5,29.85,North,356,0.0,0.0,93,0.00,,---,0.00,VWS V14.01,2013-07-11 06:55:00,
2013-07-11 03:00:00,70.6,68.2,29.85,North,354,0.0,0.0,92,0.00,,---,0.00,VWS V14.01,2013-07-11 07:00:00,
2013-07-11 03:05:00,70.4,67.7,29.85,North,354,0.0,0.0,91,0.00,,---,0.00,VWS V14.01,2013-07-11 07:05:00,
2013-07-11 03:11:00,70.4,67.3,29.85,NW,318,0.0,0.0,90,0.00,,---,0.00,VWS V14.01,2013-07-11 07:11:00,
2013-07-11 03:16:00,70.6,67.5,29.85,NW,311,0.0,0.0,90,0.00,,---,0.00,VWS V14.01,2013-07-11 07:16:00,
2013-07-11 03:21:00,70.7,67.6,29.85,NW,312,0.0,0.0,90,0.00,,---,0.00,VWS V14.01,2013-07-11 07:21:00,
2013-07-11 03:26:00,70.9,67.5,29.85,WNW,298,0.0,0.0,89,0.00,,---,0.00,VWS V14.01,2013-07-11 07:26:00,
2013-07-11 03:31:00,71.0,67.9,29.85,NW,317,0.0,0.0,90,0.00,,---,0.00,VWS V14.01,2013-07-11 07:31:00,
2013-07-11 03:36:00,70.9,67.5,29.85,NW,318,0.0,0.0,89,0.00,,---,0.00,VWS V14.01,2013-07-11 07:36:00,
2013-07-11 03:41:00,70.9,67.5,29.85,North,4,0.0,0.0,89,0.00,,---,0.00,VWS V14.01,2013-07-11 07:41:00,
2013-07-11 03:46:00,70.9,67.5,29.84,North,4,0.0,0.0,89,0.00,,---,0.00,VWS V14.01,2013-07-11 07:46:00,
2013-07-11 03:51:00,70.8,67.4,29.84,North,4,0.0,0.0,89,0.00,,---,0.00,VWS V14.01,2013-07-11 07:51:00,
2013-07-11 03:56:00,70.7,67.6,29.84,North,3,0.0,0.0,90,0.00,,---,0.00,VWS V14.01,2013-07-11 07:56:00,
2013-07-11 04:01:00,70.5,67.4,29.85,North,3,0.0,0.0,90,0.00,,---,0.00,VWS V14.01,2013-07-11 08:01:00,
2013-07-11 04:06:00,70.2,67.1,29.85,North,4,0.0,0.0,90,0.00,,---,0.00,VWS V14.01,2013-07-11 08:06:00,
2013-07-11 04:11:00,70.1,67.0,29.85,North,4,0.0,0.0,90,0.00,,---,0.00,VWS V14.01,2013-07-11 08:11:00,
2013-07-11 04:16:00,70.0,66.9,29.84,North,3,0.0,0.0,90,0.00,,---,0.00,VWS V14.01,2013-07-11 08:16:00,
2013-07-11 04:21:00,69.9,66.8,29.84,North,4,0.0,0.0,90,0.00,,---,0.00,VWS V14.01,2013-07-11 08:21:00,
2013-07-11 04:26:00,69.9,66.8,29.85,North,4,0.0,0.0,90,0.00,,---,0.00,VWS V14.01,2013-07-11 08:26:00,
2013-07-11 04:31:00,69.9,66.5,29.85,North,3,0.0,0.0,89,0.00,,---,0.00,VWS V14.01,2013-07-11 08:31:00,
2013-07-11 04:37:00,69.9,66.5,29.84,North,4,0.0,0.0,89,0.00,,---,0.00,VWS V14.01,2013-07-11 08:37:00,
2013-07-11 04:42:00,69.9,66.5,29.84,North,3,0.0,0.0,89,0.00,,---,0.00,VWS V14.01,2013-07-11 08:42:00,
2013-07-11 04:47:00,69.9,66.5,29.85,North,3,0.0,0.0,89,0.00,,---,0.00,VWS V14.01,2013-07-11 08:47:00,
2013-07-11 04:52:00,69.9,66.5,29.85,North,4,0.0,0.0,89,0.00,,---,0.00,VWS V14.01,2013-07-11 08:52:00,
2013-07-11 04:57:00,69.9,66.8,29.85,North,4,0.0,0.0,90,0.00,,---,0.00,VWS V14.01,2013-07-11 08:57:00,
2013-07-11 05:02:00,69.9,66.8,29.85,North,4,0.0,0.0,90,0.00,,---,0.00,VWS V14.01,2013-07-11 09:02:00,
2013-07-11 05:07:00,69.9,67.2,29.85,North,3,0.0,0.0,91,0.00,,---,0.00,VWS V14.01,2013-07-11 09:07:00,
2013-07-11 05:13:00,69.8,67.1,29.85,North,4,0.0,0.0,91,0.00,,---,0.00,VWS V14.01,2013-07-11 09:13:00,
2013-07-11 05:18:00,69.7,67.3,29.85,North,4,0.0,0.0,92,0.00,,---,0.00,VWS V14.01,2013-07-11 09:18:00,
2013-07-11 05:23:00,69.7,67.3,29.85,North,3,0.0,0.0,92,0.00,,---,0.00,VWS V14.01,2013-07-11 09:23:00,
2013-07-11 05:28:00,69.6,67.2,29.85,North,3,0.0,0.0,92,0.00,,---,0.00,VWS V14.01,2013-07-11 09:28:00,
2013-07-11 05:33:00,69.5,67.4,29.85,North,3,0.0,0.0,93,0.00,,---,0.00,VWS V14.01,2013-07-11 09:33:00,
2013-07-11 05:38:00,69.5,67.4,29.85,North,4,0.0,0.0,93,0.00,,---,0.00,VWS V14.01,2013-07-11 09:38:00,
2013-07-11 05:43:00,69.4,67.6,29.85,North,4,0.0,0.0,94,0.00,,---,0.00,VWS V14.01,2013-07-11 09:43:00,
2013-07-11 05:48:00,69.3,67.2,29.85,North,356,0.0,2.0,93,0.00,,---,0.00,VWS V14.01,2013-07-11 09:48:00,
2013-07-11 05:53:00,69.2,67.1,29.86,North,356,0.0,0.0,93,0.00,,---,0.00,VWS V14.01,2013-07-11 09:53:00,
2013-07-11 05:59:00,69.2,67.1,29.86,North,356,0.0,0.0,93,0.00,,---,0.00,VWS V14.01,2013-07-11 09:59:00,
2013-07-11 06:04:00,69.1,66.7,29.86,North,356,0.0,0.0,92,0.00,,---,0.00,VWS V14.01,2013-07-11 10:04:00,
2013-07-11 06:09:00,69.0,66.6,29.86,North,355,0.0,0.0,92,0.00,,---,0.00,VWS V14.01,2013-07-11 10:09:00,
2013-07-11 06:14:00,69.0,66.6,29.86,North,357,0.0,0.0,92,0.00,,---,0.00,VWS V14.01,2013-07-11 10:14:00,
2013-07-11 06:19:00,69.0,66.6,29.87,North,356,0.0,0.0,92,0.00,,---,0.00,VWS V14.01,2013-07-11 10:19:00,
2013-07-11 06:24:00,69.0,66.6,29.87,North,355,0.0,0.0,92,0.00,,---,0.00,VWS V14.01,2013-07-11 10:24:00,
2013-07-11 06:29:00,68.9,66.2,29.87,SW,229,0.0,1.0,91,0.00,,---,0.00,VWS V14.01,2013-07-11 10:29:00,
2013-07-11 06:34:00,68.9,66.2,29.87,SW,228,0.0,0.0,91,0.00,,---,0.00,VWS V14.01,2013-07-11 10:34:00,
2013-07-11 06:39:00,69.0,66.3,29.88,SSW,193,0.0,0.0,91,0.00,,---,0.00,VWS V14.01,2013-07-11 10:39:00,
2013-07-11 06:44:00,69.0,65.9,29.88,West,269,0.0,0.0,90,0.00,,---,0.00,VWS V14.01,2013-07-11 10:44:00,
2013-07-11 06:49:00,69.1,66.4,29.88,West,268,0.0,0.0,91,0.00,,---,0.00,VWS V14.01,2013-07-11 10:49:00,
2013-07-11 06:54:00,69.1,66.4,29.88,West,269,0.0,0.0,91,0.00,,---,0.00,VWS V14.01,2013-07-11 10:54:00,
2013-07-11 07:00:00,69.1,66.4,29.88,West,268,0.0,0.0,91,0.00,,---,0.00,VWS V14.01,2013-07-11 11:00:00,
2013-07-11 07:05:00,69.0,66.3,29.89,West,269,0.0,0.0,91,0.00,,---,0.00,VWS V14.01,2013-07-11 11:05:00,
2013-07-11 07:10:00,69.0,66.3,29.89,West,270,0.0,0.0,91,0.00,,---,0.00,VWS V14.01,2013-07-11 11:10:00,
2013-07-11 07:15:00,69.0,66.3,29.89,WSW,253,0.0,0.0,91,0.00,,---,0.00,VWS V14.01,2013-07-11 11:15:00,
2013-07-11 07:20:00,69.0,65.9,29.89,West,280,0.0,0.0,90,0.00,,---,0.00,VWS V14.01,2013-07-11 11:20:00,
2013-07-11 07:25:00,69.1,66.1,29.90,WNW,283,0.0,0.0,90,0.00,,---,0.00,VWS V14.01,2013-07-11 11:25:00,
2013-07-11 07:30:00,69.2,66.2,29.90,NW,324,0.0,1.0,90,0.00,,---,0.00,VWS V14.01,2013-07-11 11:30:00,
2013-07-11 07:35:00,69.1,66.1,29.90,WNW,289,0.0,1.0,90,0.00,,---,0.00,VWS V14.01,2013-07-11 11:35:00,
2013-07-11 07:40:00,69.2,65.8,29.90,West,280,1.0,1.0,89,0.00,,---,0.00,VWS V14.01,2013-07-11 11:40:00,
2013-07-11 07:45:00,69.2,66.2,29.90,West,270,0.0,1.0,90,0.00,,---,0.00,VWS V14.01,2013-07-11 11:45:00,
2013-07-11 07:51:00,69.2,66.2,29.90,WNW,285,0.0,0.0,90,0.00,,---,0.00,VWS V14.01,2013-07-11 11:51:00,
2013-07-11 07:56:00,69.2,66.2,29.90,WNW,288,0.0,1.0,90,0.00,,---,0.00,VWS V14.01,2013-07-11 11:56:00,
2013-07-11 08:01:00,69.2,66.2,29.90,WNW,288,0.0,1.0,90,0.00,,---,0.00,VWS V14.01,2013-07-11 12:01:00,
2013-07-11 08:06:00,69.1,66.1,29.90,WNW,293,0.0,1.0,90,0.00,,---,0.00,VWS V14.01,2013-07-11 12:06:00,
2013-07-11 08:11:00,69.1,66.1,29.91,WNW,289,0.0,1.0,90,0.00,,---,0.00,VWS V14.01,2013-07-11 12:11:00,
2013-07-11 08:16:00,69.0,65.9,29.91,WNW,288,1.0,1.0,90,0.00,,---,0.00,VWS V14.01,2013-07-11 12:16:00,
2013-07-11 08:21:00,69.0,66.3,29.91,WNW,289,0.0,1.0,91,0.00,,---,0.00,VWS V14.01,2013-07-11 12:21:00,
2013-07-11 08:26:00,69.1,66.4,29.91,West,271,0.0,0.0,91,0.00,,---,0.00,VWS V14.01,2013-07-11 12:26:00,
2013-07-11 08:32:00,69.1,66.4,29.91,West,271,0.0,1.0,91,0.00,,---,0.00,VWS V14.01,2013-07-11 12:32:00,
2013-07-11 08:37:00,69.1,66.4,29.91,West,273,1.0,1.0,91,0.00,,---,0.00,VWS V14.01,2013-07-11 12:37:00,
2013-07-11 08:42:00,69.1,66.4,29.91,West,281,0.0,0.0,91,0.00,,---,0.00,VWS V14.01,2013-07-11 12:42:00,
2013-07-11 08:47:00,69.2,66.8,29.91,West,281,0.0,0.0,92,0.00,,---,0.00,VWS V14.01,2013-07-11 12:47:00,
2013-07-11 08:52:00,69.2,66.5,29.91,WSW,243,0.0,0.0,91,0.00,,---,0.00,VWS V14.01,2013-07-11 12:52:00,
2013-07-11 08:57:00,69.2,66.5,29.91,WSW,256,1.0,2.0,91,0.00,,---,0.00,VWS V14.01,2013-07-11 12:57:00,
2013-07-11 09:02:00,69.3,66.6,29.91,SW,221,0.0,2.0,91,0.00,,---,0.00,VWS V14.01,2013-07-11 13:02:00,
2013-07-11 09:07:00,69.5,66.8,29.91,SW,232,0.0,0.0,91,0.00,,---,0.00,VWS V14.01,2013-07-11 13:07:00,
2013-07-11 09:13:00,69.8,67.1,29.91,SW,232,0.0,0.0,91,0.00,,---,0.00,VWS V14.01,2013-07-11 13:13:00,
2013-07-11 09:18:00,70.0,67.3,29.91,WSW,243,0.0,0.0,91,0.00,,---,0.00,VWS V14.01,2013-07-11 13:18:00,
2013-07-11 09:23:00,70.1,67.4,29.91,WSW,243,0.0,0.0,91,0.00,,---,0.00,VWS V14.01,2013-07-11 13:23:00,
2013-07-11 09:28:00,70.3,67.6,29.91,WSW,243,0.0,0.0,91,0.00,,---,0.00,VWS V14.01,2013-07-11 13:28:00,
2013-07-11 09:33:00,70.5,67.8,29.91,WSW,243,0.0,0.0,91,0.00,,---,0.00,VWS V14.01,2013-07-11 13:33:00,
2013-07-11 09:39:00,70.9,67.5,29.91,WSW,253,0.0,0.0,89,0.00,,---,0.00,VWS V14.01,2013-07-11 13:39:00,
2013-07-11 09:44:00,71.3,68.2,29.91,WSW,253,0.0,0.0,90,0.00,,---,0.00,VWS V14.01,2013-07-11 13:44:00,
2013-07-11 09:49:00,71.8,68.1,29.91,WSW,254,0.0,0.0,88,0.00,,---,0.00,VWS V14.01,2013-07-11 13:49:00,
2013-07-11 09:54:00,72.1,68.3,29.91,WSW,253,0.0,0.0,88,0.00,,---,0.00,VWS V14.01,2013-07-11 13:54:00,
2013-07-11 09:59:00,72.2,68.1,29.91,WSW,253,0.0,0.0,87,0.00,,---,0.00,VWS V14.01,2013-07-11 13:59:00,
2013-07-11 10:05:00,72.3,67.9,29.91,WSW,253,0.0,0.0,86,0.00,,---,0.00,VWS V14.01,2013-07-11 14:05:00,
2013-07-11 10:10:00,72.3,68.2,29.91,WSW,253,0.0,0.0,87,0.00,,---,0.00,VWS V14.01,2013-07-11 14:10:00,
2013-07-11 10:15:00,72.4,68.3,29.91,WSW,253,0.0,0.0,87,0.00,,---,0.00,VWS V14.01,2013-07-11 14:15:00,
2013-07-11 10:20:00,72.4,68.0,29.91,WSW,253,0.0,0.0,86,0.00,,---,0.00,VWS V14.01,2013-07-11 14:20:00,
2013-07-11 10:25:00,72.6,68.2,29.91,WSW,253,0.0,1.0,86,0.00,,---,0.00,VWS V14.01,2013-07-11 14:25:00,
2013-07-11 10:31:00,72.8,68.4,29.92,WSW,253,0.0,0.0,86,0.00,,---,0.00,VWS V14.01,2013-07-11 14:31:00,
2013-07-11 10:36:00,73.1,69.0,29.92,WSW,253,0.0,0.0,87,0.00,,---,0.00,VWS V14.01,2013-07-11 14:36:00,
2013-07-11 10:41:00,73.1,68.7,29.92,WSW,253,0.0,0.0,86,0.00,,---,0.00,VWS V14.01,2013-07-11 14:41:00,
2013-07-11 10:47:00,73.1,69.3,29.92,WSW,242,0.0,1.0,88,0.00,,---,0.00,VWS V14.01,2013-07-11 14:47:00,
2013-07-11 10:52:00,73.5,69.4,29.92,WSW,242,0.0,0.0,87,0.00,,---,0.00,VWS V14.01,2013-07-11 14:52:00,
2013-07-11 10:57:00,74.0,68.2,29.92,SSW,198,0.0,2.0,82,0.00,,---,0.00,VWS V14.01,2013-07-11 14:57:00,
2013-07-11 11:02:00,74.4,68.9,29.92,SSW,198,0.0,0.0,83,0.00,,---,0.00,VWS V14.01,2013-07-11 15:02:00,
2013-07-11 11:07:00,74.7,69.6,29.92,SE,146,0.0,0.0,84,0.00,,---,0.00,VWS V14.01,2013-07-11 15:07:00,
2013-07-11 11:12:00,74.9,68.7,29.91,SW,221,0.0,0.0,81,0.00,,---,0.00,VWS V14.01,2013-07-11 15:12:00,
2013-07-11 11:18:00,75.0,68.4,29.91,SW,235,0.0,0.0,80,0.00,,---,0.00,VWS V14.01,2013-07-11 15:18:00,
2013-07-11 11:23:00,75.5,69.3,29.91,ESE,123,0.0,0.0,81,0.00,,---,0.00,VWS V14.01,2013-07-11 15:23:00,
2013-07-11 11:28:00,76.0,70.5,29.91,SSE,156,0.0,0.0,83,0.00,,---,0.00,VWS V14.01,2013-07-11 15:28:00,
2013-07-11 11:33:00,76.6,70.3,29.91,SW,222,0.0,1.0,81,0.00,,---,0.00,VWS V14.01,2013-07-11 15:33:00,
2013-07-11 11:38:00,76.9,71.0,29.91,NNE,12,1.0,3.0,82,0.00,,---,0.00,VWS V14.01,2013-07-11 15:38:00,
2013-07-11 11:43:00,77.5,70.8,29.91,NNW,333,0.0,0.0,80,0.00,,---,0.00,VWS V14.01,2013-07-11 15:43:00,
2013-07-11 11:48:00,77.8,69.6,29.91,SW,222,0.0,0.0,76,0.00,,---,0.00,VWS V14.01,2013-07-11 15:48:00,
2013-07-11 11:53:00,78.3,70.5,29.91,SSE,150,0.0,0.0,77,0.00,,---,0.00,VWS V14.01,2013-07-11 15:53:00,
2013-07-11 11:58:00,78.6,71.2,29.91,SE,126,0.0,0.0,78,0.00,,---,0.00,VWS V14.01,2013-07-11 15:58:00,
2013-07-11 12:03:00,78.7,70.9,29.92,SE,127,0.0,0.0,77,0.00,,---,0.00,VWS V14.01,2013-07-11 16:03:00,
2013-07-11 12:08:00,78.8,69.8,29.92,SSE,158,1.0,1.0,74,0.00,,---,0.00,VWS V14.01,2013-07-11 16:08:00,
2013-07-11 12:13:00,79.4,71.2,29.92,ESE,113,0.0,0.0,76,0.00,,---,0.00,VWS V14.01,2013-07-11 16:13:00,
2013-07-11 12:19:00,79.4,71.6,29.92,SW,215,0.0,0.0,77,0.00,,---,0.00,VWS V14.01,2013-07-11 16:19:00,
2013-07-11 12:24:00,79.2,69.0,29.92,WSW,241,0.0,1.0,71,0.00,,---,0.00,VWS V14.01,2013-07-11 16:24:00,
2013-07-11 12:30:00,79.6,71.0,29.91,SSE,152,0.0,0.0,75,0.00,,---,0.00,VWS V14.01,2013-07-11 16:30:00,
2013-07-11 12:35:00,80.0,70.6,29.92,SW,218,1.0,1.0,73,0.00,,---,0.00,VWS V14.01,2013-07-11 16:35:00,
2013-07-11 12:40:00,80.3,71.3,29.92,SSW,211,0.0,0.0,74,0.00,,---,0.00,VWS V14.01,2013-07-11 16:40:00,
2013-07-11 12:45:00,80.4,70.6,29.92,SE,141,0.0,1.0,72,0.00,,---,0.00,VWS V14.01,2013-07-11 16:45:00,
2013-07-11 12:50:00,80.2,71.9,29.92,SE,142,0.0,0.0,76,0.00,,---,0.00,VWS V14.01,2013-07-11 16:50:00,
2013-07-11 12:55:00,80.5,71.8,29.91,SE,135,0.0,0.0,75,0.00,,---,0.00,VWS V14.01,2013-07-11 16:55:00,
2013-07-11 13:00:00,80.3,71.7,29.91,WSW,242,0.0,0.0,75,0.00,,---,0.00,VWS V14.01,2013-07-11 17:00:00,
2013-07-11 13:05:00,79.9,71.7,29.91,SSW,210,0.0,1.0,76,0.00,,---,0.00,VWS V14.01,2013-07-11 17:05:00,
2013-07-11 13:11:00,79.8,71.2,29.91,SSW,210,0.0,0.0,75,0.00,,---,0.00,VWS V14.01,2013-07-11 17:11:00,
2013-07-11 13:16:00,79.9,70.9,29.91,SSW,197,0.0,0.0,74,0.00,,---,0.00,VWS V14.01,2013-07-11 17:16:00,
2013-07-11 13:21:00,79.5,69.3,29.91,SSW,201,0.0,0.0,71,0.00,,---,0.00,VWS V14.01,2013-07-11 17:21:00,
2013-07-11 13:27:00,79.1,70.9,29.91,ESE,115,0.0,0.0,76,0.00,,---,0.00,VWS V14.01,2013-07-11 17:27:00,
2013-07-11 13:32:00,78.7,70.5,29.91,ESE,116,0.0,0.0,76,0.00,,---,0.00,VWS V14.01,2013-07-11 17:32:00,
2013-07-11 13:37:00,78.5,70.7,29.90,ESE,115,0.0,0.0,77,0.00,,---,0.00,VWS V14.01,2013-07-11 17:37:00,
2013-07-11 13:42:00,78.8,71.0,29.91,ESE,113,0.0,0.0,77,0.00,,---,0.00,VWS V14.01,2013-07-11 17:42:00,
2013-07-11 13:47:00,79.2,71.8,29.90,ESE,115,0.0,0.0,78,0.00,,---,0.00,VWS V14.01,2013-07-11 17:47:00,
2013-07-11 13:52:00,79.3,71.1,29.90,SE,129,0.0,0.0,76,0.00,,---,0.00,VWS V14.01,2013-07-11 17:52:00,
2013-07-11 13:58:00,78.8,69.8,29.90,SW,224,0.0,0.0,74,0.00,,---,0.00,VWS V14.01,2013-07-11 17:58:00,
2013-07-11 14:03:00,78.6,70.0,29.90,SW,224,0.0,0.0,75,0.00,,---,0.00,VWS V14.01,2013-07-11 18:03:00,
2013-07-11 14:08:00,78.6,70.8,29.90,SW,224,0.0,0.0,77,0.00,,---,0.00,VWS V14.01,2013-07-11 18:08:00,
2013-07-11 14:13:00,78.6,71.2,29.90,SW,224,0.0,0.0,78,0.00,,---,0.00,VWS V14.01,2013-07-11 18:13:00,
2013-07-11 14:19:00,78.5,71.1,29.90,SW,224,0.0,0.0,78,0.00,,---,0.00,VWS V14.01,2013-07-11 18:19:00,
2013-07-11 14:24:00,78.2,71.2,29.90,SW,224,0.0,0.0,79,0.00,,---,0.00,VWS V14.01,2013-07-11 18:24:00,
2013-07-11 14:29:00,78.1,71.1,29.90,SW,224,0.0,0.0,79,0.00,,---,0.00,VWS V14.01,2013-07-11 18:29:00,
2013-07-11 14:34:00,78.0,71.3,29.90,SW,224,0.0,0.0,80,0.00,,---,0.00,VWS V14.01,2013-07-11 18:34:00,
2013-07-11 14:39:00,78.0,71.0,29.90,SW,218,0.0,1.0,79,0.00,,---,0.00,VWS V14.01,2013-07-11 18:39:00,
2013-07-11 14:44:00,78.0,71.3,29.90,SW,218,0.0,0.0,80,0.00,,---,0.00,VWS V14.01,2013-07-11 18:44:00,
2013-07-11 14:49:00,78.4,72.4,29.90,SW,218,0.0,0.0,82,0.00,,---,0.00,VWS V14.01,2013-07-11 18:49:00,
2013-07-11 14:54:00,78.7,72.4,29.89,SW,218,0.0,0.0,81,0.00,,---,0.00,VWS V14.01,2013-07-11 18:54:00,
2013-07-11 14:59:00,78.9,70.7,29.89,SW,222,0.0,0.0,76,0.00,,---,0.00,VWS V14.01,2013-07-11 18:59:00,
2013-07-11 15:04:00,79.4,71.6,29.89,SW,221,0.0,0.0,77,0.00,,---,0.00,VWS V14.01,2013-07-11 19:04:00,
2013-07-11 15:10:00,79.7,69.9,29.89,SSE,158,0.0,0.0,72,0.00,,---,0.00,VWS V14.01,2013-07-11 19:10:00,
2013-07-11 15:15:00,79.6,69.8,29.89,SSE,158,0.0,0.0,72,0.00,,---,0.00,VWS V14.01,2013-07-11 19:15:00,
2013-07-11 15:20:00,79.4,70.4,29.89,SSW,203,0.0,0.0,74,0.00,,---,0.00,VWS V14.01,2013-07-11 19:20:00,
2013-07-11 15:25:00,79.5,70.9,29.89,SSW,203,0.0,0.0,75,0.00,,---,0.00,VWS V14.01,2013-07-11 19:25:00,
2013-07-11 15:30:00,79.5,70.5,29.89,SSW,203,0.0,0.0,74,0.00,,---,0.00,VWS V14.01,2013-07-11 19:30:00,
2013-07-11 15:35:00,79.5,70.9,29.88,SSW,203,0.0,0.0,75,0.00,,---,0.00,VWS V14.01,2013-07-11 19:35:00,
2013-07-11 15:40:00,79.6,72.1,29.88,SSW,202,0.0,0.0,78,0.00,,---,0.00,VWS V14.01,2013-07-11 19:40:00,
2013-07-11 15:45:00,79.8,72.3,29.88,SSW,203,0.0,0.0,78,0.00,,---,0.00,VWS V14.01,2013-07-11 19:45:00,
2013-07-11 15:50:00,79.8,71.6,29.88,SSW,203,0.0,0.0,76,0.00,,---,0.00,VWS V14.01,2013-07-11 19:50:00,
2013-07-11 15:55:00,79.9,72.1,29.88,SSW,203,0.0,0.0,77,0.00,,---,0.00,VWS V14.01,2013-07-11 19:55:00,
2013-07-11 16:00:00,80.0,71.8,29.88,SSW,203,0.0,0.0,76,0.00,,---,0.00,VWS V14.01,2013-07-11 20:00:00,
2013-07-11 16:05:00,79.9,71.3,29.88,SSW,203,0.0,0.0,75,0.00,,---,0.00,VWS V14.01,2013-07-11 20:05:00,
2013-07-11 16:10:00,79.8,71.9,29.88,SSW,203,0.0,0.0,77,0.00,,---,0.00,VWS V14.01,2013-07-11 20:10:00,
2013-07-11 16:15:00,79.5,71.3,29.88,SSW,203,0.0,0.0,76,0.00,,---,0.00,VWS V14.01,2013-07-11 20:15:00,
2013-07-11 16:20:00,79.3,71.1,29.88,SSW,203,0.0,0.0,76,0.00,,---,0.00,VWS V14.01,2013-07-11 20:20:00,
2013-07-11 16:26:00,79.2,71.0,29.87,SSW,203,0.0,0.0,76,0.00,,---,0.00,VWS V14.01,2013-07-11 20:26:00,
2013-07-11 16:31:00,79.2,71.0,29.88,SSW,203,0.0,0.0,76,0.00,,---,0.00,VWS V14.01,2013-07-11 20:31:00,
2013-07-11 16:36:00,79.5,70.5,29.88,SSW,203,0.0,0.0,74,0.00,,---,0.00,VWS V14.01,2013-07-11 20:36:00,
2013-07-11 16:41:00,79.9,70.5,29.88,SSW,203,0.0,0.0,73,0.00,,---,0.00,VWS V14.01,2013-07-11 20:41:00,
2013-07-11 16:46:00,80.3,70.9,29.88,SSW,203,0.0,0.0,73,0.00,,---,0.00,VWS V14.01,2013-07-11 20:46:00,
2013-07-11 16:51:00,80.5,70.2,29.88,SSW,203,0.0,0.0,71,0.00,,---,0.00,VWS V14.01,2013-07-11 20:51:00,
2013-07-11 16:56:00,80.4,70.6,29.87,SSW,203,0.0,0.0,72,0.00,,---,0.00,VWS V14.01,2013-07-11 20:56:00,
2013-07-11 17:01:00,79.9,70.5,29.88,SSW,203,0.0,0.0,73,0.00,,---,0.00,VWS V14.01,2013-07-11 21:01:00,
2013-07-11 17:06:00,79.3,70.3,29.88,SSW,203,0.0,0.0,74,0.00,,---,0.00,VWS V14.01,2013-07-11 21:06:00,
2013-07-11 17:11:00,78.8,70.2,29.88,SSW,203,0.0,0.0,75,0.00,,---,0.00,VWS V14.01,2013-07-11 21:11:00,
2013-07-11 17:17:00,78.4,71.0,29.88,SSW,203,0.0,0.0,78,0.00,,---,0.00,VWS V14.01,2013-07-11 21:17:00,
2013-07-11 17:22:00,77.9,70.5,29.88,SSW,203,0.0,0.0,78,0.00,,---,0.00,VWS V14.01,2013-07-11 21:22:00,
2013-07-11 17:27:00,77.5,70.1,29.88,SSW,203,0.0,0.0,78,0.00,,---,0.00,VWS V14.01,2013-07-11 21:27:00,
2013-07-11 17:32:00,77.2,70.6,29.88,SSW,203,0.0,0.0,80,0.00,,---,0.00,VWS V14.01,2013-07-11 21:32:00,
2013-07-11 17:37:00,76.9,70.6,29.87,SSW,203,0.0,0.0,81,0.00,,---,0.00,VWS V14.01,2013-07-11 21:37:00,
2013-07-11 17:42:00,76.7,70.8,29.88,SSW,203,0.0,0.0,82,0.00,,---,0.00,VWS V14.01,2013-07-11 21:42:00,
2013-07-11 17:47:00,76.4,70.9,29.88,SSW,203,0.0,0.0,83,0.00,,---,0.00,VWS V14.01,2013-07-11 21:47:00,
2013-07-11 17:52:00,76.2,70.7,29.88,SSW,203,0.0,0.0,83,0.00,,---,0.00,VWS V14.01,2013-07-11 21:52:00,
2013-07-11 17:57:00,76.0,70.8,29.87,SSW,203,0.0,0.0,84,0.00,,---,0.00,VWS V14.01,2013-07-11 21:57:00,
2013-07-11 18:03:00,75.9,70.4,29.88,SSW,203,0.0,0.0,83,0.00,,---,0.00,VWS V14.01,2013-07-11 22:03:00,
2013-07-11 18:08:00,75.9,70.4,29.88,SSW,203,0.0,0.0,83,0.00,,---,0.00,VWS V14.01,2013-07-11 22:08:00,
2013-07-11 18:13:00,75.9,70.7,29.88,SSW,203,0.0,0.0,84,0.00,,---,0.00,VWS V14.01,2013-07-11 22:13:00,
2013-07-11 18:18:00,75.9,70.7,29.88,SSW,203,0.0,0.0,84,0.00,,---,0.00,VWS V14.01,2013-07-11 22:18:00,
2013-07-11 18:23:00,75.9,70.7,29.88,SSW,203,0.0,0.0,84,0.00,,---,0.00,VWS V14.01,2013-07-11 22:23:00,
2013-07-11 18:28:00,75.8,70.6,29.88,SSW,203,0.0,0.0,84,0.00,,---,0.00,VWS V14.01,2013-07-11 22:28:00,
2013-07-11 18:33:00,75.7,70.5,29.88,SSW,203,0.0,0.0,84,0.00,,---,0.00,VWS V14.01,2013-07-11 22:33:00,
2013-07-11 18:38:00,75.5,70.7,29.88,SSW,203,0.0,0.0,85,0.00,,---,0.00,VWS V14.01,2013-07-11 22:38:00,
2013-07-11 18:44:00,75.5,71.0,29.88,SSW,203,0.0,0.0,86,0.00,,---,0.00,VWS V14.01,2013-07-11 22:44:00,
2013-07-11 18:49:00,75.5,71.0,29.88,SSW,203,0.0,0.0,86,0.00,,---,0.00,VWS V14.01,2013-07-11 22:49:00,
2013-07-11 18:54:00,75.6,71.5,29.88,SSW,203,0.0,0.0,87,0.00,,---,0.00,VWS V14.01,2013-07-11 22:54:00,
2013-07-11 18:59:00,75.5,71.0,29.89,SSW,204,0.0,0.0,86,0.00,,---,0.00,VWS V14.01,2013-07-11 22:59:00,
2013-07-11 19:04:00,75.4,70.6,29.89,SSW,204,0.0,0.0,85,0.00,,---,0.00,VWS V14.01,2013-07-11 23:04:00,
2013-07-11 19:09:00,75.3,70.1,29.89,SSW,203,0.0,0.0,84,0.00,,---,0.00,VWS V14.01,2013-07-11 23:09:00,
2013-07-11 19:14:00,75.1,70.3,29.89,SSW,203,0.0,0.0,85,0.00,,---,0.00,VWS V14.01,2013-07-11 23:14:00,
2013-07-11 19:19:00,75.0,70.2,29.89,SSW,203,0.0,0.0,85,0.00,,---,0.00,VWS V14.01,2013-07-11 23:19:00,
2013-07-11 19:25:00,74.9,70.4,29.89,SSW,204,0.0,0.0,86,0.00,,---,0.00,VWS V14.01,2013-07-11 23:25:00,
2013-07-11 19:30:00,74.6,70.1,29.90,SSW,204,0.0,0.0,86,0.00,,---,0.00,VWS V14.01,2013-07-11 23:30:00,
2013-07-11 19:35:00,74.5,70.4,29.90,SSW,203,0.0,0.0,87,0.00,,---,0.00,VWS V14.01,2013-07-11 23:35:00,
2013-07-11 19:40:00,74.3,69.8,29.90,SSW,204,0.0,0.0,86,0.00,,---,0.00,VWS V14.01,2013-07-11 23:40:00,
2013-07-11 19:45:00,74.1,69.7,29.90,WSW,245,0.0,0.0,86,0.00,,---,0.00,VWS V14.01,2013-07-11 23:45:00,
2013-07-11 19:50:00,73.8,69.3,29.90,WSW,244,0.0,0.0,86,0.00,,---,0.00,VWS V14.01,2013-07-11 23:50:00,
2013-07-11 19:55:00,73.6,69.2,29.90,WSW,245,0.0,0.0,86,0.00,,---,0.00,VWS V14.01,2013-07-11 23:55:00,
2013-07-11 20:00:00,73.4,68.6,29.90,WSW,245,0.0,0.0,85,0.00,,---,0.00,VWS V14.01,2013-07-12 00:00:00,
2013-07-11 20:06:00,73.3,68.9,29.90,WSW,256,0.0,0.0,86,0.01,,---,0.01,VWS V14.01,2013-07-12 00:06:00,
2013-07-11 20:11:00,72.7,68.9,29.90,WSW,256,0.0,0.0,88,0.03,,---,0.03,VWS V14.01,2013-07-12 00:11:00,
2013-07-11 20:16:00,72.0,68.9,29.90,WSW,256,0.0,0.0,90,0.03,,---,0.03,VWS V14.01,2013-07-12 00:16:00,
2013-07-11 20:21:00,71.3,68.9,29.90,WSW,255,0.0,0.0,92,0.04,,---,0.04,VWS V14.01,2013-07-12 00:21:00,
2013-07-11 20:27:00,70.8,68.7,29.89,WSW,256,0.0,0.0,93,0.05,,---,0.05,VWS V14.01,2013-07-12 00:27:00,
2013-07-11 20:32:00,70.3,68.2,29.89,WSW,256,0.0,0.0,93,0.05,,---,0.05,VWS V14.01,2013-07-12 00:32:00,
2013-07-11 20:37:00,70.1,68.3,29.89,WSW,256,0.0,0.0,94,0.05,,---,0.05,VWS V14.01,2013-07-12 00:37:00,
2013-07-11 20:42:00,69.9,68.4,29.89,WSW,256,0.0,0.0,95,0.05,,---,0.05,VWS V14.01,2013-07-12 00:42:00,
2013-07-11 20:47:00,69.7,68.2,29.89,WSW,256,0.0,0.0,95,0.05,,---,0.05,VWS V14.01,2013-07-12 00:47:00,
2013-07-11 20:52:00,69.6,68.1,29.89,WSW,256,0.0,0.0,95,0.05,,---,0.05,VWS V14.01,2013-07-12 00:52:00,
2013-07-11 20:57:00,69.6,68.4,29.89,WSW,256,0.0,0.0,96,0.05,,---,0.05,VWS V14.01,2013-07-12 00:57:00,
2013-07-11 21:02:00,69.5,68.3,29.89,WSW,256,0.0,0.0,96,0.05,,---,0.05,VWS V14.01,2013-07-12 01:02:00,
2013-07-11 21:08:00,69.4,68.2,29.89,WSW,255,0.0,0.0,96,0.03,,---,0.05,VWS V14.01,2013-07-12 01:08:00,
2013-07-11 21:13:00,69.3,67.8,29.89,WSW,255,0.0,0.0,95,0.02,,---,0.05,VWS V14.01,2013-07-12 01:13:00,
2013-07-11 21:18:00,69.2,67.7,29.90,WSW,255,0.0,0.0,95,0.02,,---,0.05,VWS V14.01,2013-07-12 01:18:00,
2013-07-11 21:23:00,69.1,67.6,29.90,WSW,255,0.0,0.0,95,0.00,,---,0.05,VWS V14.01,2013-07-12 01:23:00,
2013-07-11 21:28:00,69.1,67.6,29.90,WSW,255,0.0,0.0,95,0.00,,---,0.05,VWS V14.01,2013-07-12 01:28:00,
2013-07-11 21:33:00,69.1,67.6,29.90,WSW,255,0.0,0.0,95,0.00,,---,0.05,VWS V14.01,2013-07-12 01:33:00,
2013-07-11 21:38:00,69.0,67.2,29.91,WSW,255,0.0,0.0,94,0.00,,---,0.05,VWS V14.01,2013-07-12 01:38:00,
2013-07-11 21:43:00,68.9,66.8,29.90,WSW,256,0.0,0.0,93,0.00,,---,0.05,VWS V14.01,2013-07-12 01:43:00,
2013-07-11 21:48:00,69.0,66.6,29.90,WSW,256,0.0,0.0,92,0.00,,---,0.05,VWS V14.01,2013-07-12 01:48:00,
2013-07-11 21:53:00,69.1,66.4,29.91,WSW,256,0.0,0.0,91,0.00,,---,0.05,VWS V14.01,2013-07-12 01:53:00,
2013-07-11 21:59:00,69.2,65.8,29.90,WSW,255,0.0,0.0,89,0.00,,---,0.05,VWS V14.01,2013-07-12 01:59:00,
2013-07-11 22:04:00,69.4,65.7,29.90,WSW,255,0.0,0.0,88,0.00,,---,0.05,VWS V14.01,2013-07-12 02:04:00,
2013-07-11 22:09:00,69.6,66.2,29.91,WSW,256,0.0,0.0,89,0.00,,---,0.05,VWS V14.01,2013-07-12 02:09:00,
2013-07-11 22:14:00,69.7,65.7,29.90,SW,214,0.0,0.0,87,0.00,,---,0.05,VWS V14.01,2013-07-12 02:14:00,
2013-07-11 22:19:00,69.7,65.7,29.91,WSW,256,0.0,1.0,87,0.00,,---,0.05,VWS V14.01,2013-07-12 02:19:00,
2013-07-11 22:24:00,69.7,65.0,29.90,WSW,256,0.0,0.0,85,0.00,,---,0.05,VWS V14.01,2013-07-12 02:24:00,
2013-07-11 22:29:00,69.7,64.7,29.90,WSW,256,0.0,0.0,84,0.00,,---,0.05,VWS V14.01,2013-07-12 02:29:00,
2013-07-11 22:34:00,69.8,64.4,29.91,WSW,249,0.0,0.0,83,0.00,,---,0.05,VWS V14.01,2013-07-12 02:34:00,
2013-07-11 22:39:00,69.8,64.4,29.91,WSW,249,0.0,0.0,83,0.00,,---,0.05,VWS V14.01,2013-07-12 02:39:00,
2013-07-11 22:44:00,69.9,64.5,29.91,West,262,0.0,0.0,83,0.00,,---,0.05,VWS V14.01,2013-07-12 02:44:00,
2013-07-11 22:50:00,69.9,64.5,29.90,West,262,0.0,0.0,83,0.00,,---,0.05,VWS V14.01,2013-07-12 02:50:00,
2013-07-11 22:55:00,69.9,64.2,29.91,West,260,0.0,0.0,82,0.00,,---,0.05,VWS V14.01,2013-07-12 02:55:00,
2013-07-11 23:00:00,69.9,64.2,29.91,West,259,0.0,0.0,82,0.00,,---,0.05,VWS V14.01,2013-07-12 03:00:00,
2013-07-11 23:05:00,69.8,63.4,29.91,SW,218,0.0,0.0,80,0.00,,---,0.05,VWS V14.01,2013-07-12 03:05:00,
2013-07-11 23:10:00,70.0,64.3,29.91,WSW,250,0.0,1.0,82,0.00,,---,0.05,VWS V14.01,2013-07-12 03:10:00,
2013-07-11 23:15:00,69.7,64.3,29.91,WSW,255,1.0,1.0,83,0.00,,---,0.05,VWS V14.01,2013-07-12 03:15:00,
2013-07-11 23:21:00,69.2,63.8,29.91,West,278,0.0,1.0,83,0.00,,---,0.05,VWS V14.01,2013-07-12 03:21:00,
2013-07-11 23:26:00,68.8,63.4,29.90,West,277,0.0,0.0,83,0.00,,---,0.05,VWS V14.01,2013-07-12 03:26:00,
2013-07-11 23:31:00,68.8,63.1,29.90,West,274,0.0,0.0,82,0.00,,---,0.05,VWS V14.01,2013-07-12 03:31:00,
2013-07-11 23:36:00,69.0,62.6,29.90,West,274,0.0,0.0,80,0.00,,---,0.05,VWS V14.01,2013-07-12 03:36:00,
2013-07-11 23:41:00,69.4,62.6,29.90,West,274,0.0,0.0,79,0.00,,---,0.05,VWS V14.01,2013-07-12 03:41:00,
2013-07-11 23:47:00,69.8,63.4,29.91,West,274,0.0,0.0,80,0.00,,---,0.05,VWS V14.01,2013-07-12 03:47:00,
2013-07-11 23:52:00,69.9,63.1,29.91,West,274,0.0,0.0,79,0.00,,---,0.05,VWS V14.01,2013-07-12 03:52:00,
2013-07-11 23:57:00,69.9,63.1,29.91,West,274,0.0,0.0,79,0.00,,---,0.05,VWS V14.01,2013-07-12 03:57:00,